Location: Cerroniocc
(13.7547°S, 72.0222°W)
Time: 22:22:53
(UTC+00:00)

MOS 1 Rocket - Pass Details

Date: 05 July 2020
Orbit: 616 x 829 km, 97.4° (Epoch: 10 August)

Event Time Altitude Azimuth Distance (km) Brightness Sun altitude
Rises 23:31:01 0° 25° (NNE) 3,247 6.7 -13.9°
Reaches altitude 10° 23:33:22 10° 31° (NNE) 2,350 5.9 -14.4°
Maximum altitude 23:38:22 46° 103° (ESE) 1,085 3.8 -15.6°
Drops below altitude 10° 23:43:32 10° 175° (S) 2,439 5.9 -16.7°
Sets 23:46:01 0° 181° (S) 3,382 6.6 -17.3°
